Overview Statistics Trail Chart Weather Telemetry Raw packets
 

This is the latest recevied weather packets stored in our database for station/object W0CHP-13. If no packets are shown the sender has not sent any weather packets the latest 10 day(s).

<< 16 17 18 19 20 21 22 >>
Time Temp. Humidity Pressure Rain* Wind** Luminosity Snow
1788443117 22.78° C 80% 1010.6 hPa - - 43 W/m² -
1788442516 22.78° C 78% 1011.3 hPa - - 22 W/m² -
1788441916 23.33° C 77% 1011.3 hPa - - 19 W/m² -
1788441315 22.78° C 80% 1011.6 hPa - - 42 W/m² -
1788440716 22.78° C 79% 1011.3 hPa - - 20 W/m² -
1788440114 22.78° C 78% 1011 hPa - - 12 W/m² -
1788439517 22.78° C 76% 1011 hPa - - 12 W/m² -
1788438915 22.78° C 79% 1011.3 hPa - - 5 W/m² -
1788438317 23.33° C 78% 1011.3 hPa - - 5 W/m² -
1788437716 23.89° C 77% 1010.6 hPa - - 3 W/m² -
1788437117 24.44° C 73% 1011.3 hPa - - 2 W/m² -
1788436516 24.44° C 70% 1011.3 hPa - - 1 W/m² -
1788435918 23.89° C 74% 1011.3 hPa - - 0 W/m² -
1788435315 23.89° C 76% 1011.3 hPa - - 0 W/m² -
1788434716 24.44° C 74% 1011 hPa - - 0 W/m² -
1788434115 24.44° C 78% 1010.6 hPa - - 0 W/m² -
1788433517 23.89° C 84% 1010.6 hPa - - 0 W/m² -
1788432915 23.33° C 89% 1010.6 hPa - - 0 W/m² -
1788432317 22.78° C 91% 1010.6 hPa - - 0 W/m² -
1788431715 22.78° C 92% 1010.9 hPa - - 0 W/m² -
1788431117 22.78° C 92% 1010.6 hPa - - 0 W/m² -
1788430515 22.78° C 92% 1010.3 hPa - - 0 W/m² -
1788429917 22.78° C 92% 1010.2 hPa - - 0 W/m² -
1788429315 22.78° C 92% 1009.6 hPa - - 0 W/m² -
1788428718 22.78° C 92% 1009.9 hPa - - 0 W/m² -

* Rain since midnight (hover to see other rain measurements)
** Current wind speed in m/s (hover to see current wind gust speed)